GW0881 Weather Reports


Display with metric or nautical units.
time (UTC)temp
F
wind
direction
speed
MPH
gust
MPH
rain 1hr
in
rain 24hr
in
rain mn
in
humidity
%
barometer
mb
20260507092226 31 209 0.0 0.0 0.00 0.00 0.00 82 1012.1
20260507091723 31 218 0.0 0.0 0.00 0.00 0.00 83 1012.0
20260507091219 31 207 0.0 0.0 0.00 0.00 0.00 84 1012.1
20260507090720 30 215 0.0 0.0 0.00 0.00 0.00 85 1012.0
20260507090217 30 211 0.0 0.0 0.00 0.00 0.00 85 1012.1
20260507085714 31 206 0.0 0.0 0.00 0.00 0.00 84 1012.0
20260507085211 31 208 0.0 0.0 0.00 0.00 0.00 83 1012.0
20260507084708 31 207 0.0 0.0 0.00 0.00 0.00 83 1012.0
20260507084204 31 205 0.0 0.0 0.00 0.00 0.00 84 1012.0
20260507083701 30 206 0.0 0.0 0.00 0.00 0.00 84 1012.0
20260507083158 31 208 0.0 0.0 0.00 0.00 0.00 84 1011.8
20260507082654 30 210 0.0 0.0 0.00 0.00 0.00 85 1012.0
20260507082150 30 213 0.0 0.0 0.00 0.00 0.00 84 1011.9
20260507081647 30 208 0.0 0.0 0.00 0.00 0.00 84 1011.9
20260507081143 31 206 0.0 0.0 0.00 0.00 0.00 84 1011.9
20260507080640 31 202 0.0 0.0 0.00 0.00 0.00 84 1012.1
20260507080136 30 206 0.0 0.0 0.00 0.00 0.00 85 1012.0
20260507075631 30 200 0.0 0.0 0.00 0.00 0.00 86 1012.0
20260507075128 30 207 0.0 0.0 0.00 0.00 0.00 87 1012.2
20260507074624 30 211 0.0 0.0 0.00 0.00 0.00 87 1012.0
20260507074123 30 213 0.0 0.0 0.00 0.00 0.00 87 1012.1
20260507073618 30 213 0.0 0.0 0.00 0.00 0.00 85 1012.1
20260507073115 30 215 0.0 0.0 0.00 0.00 0.00 84 1012.0
20260507072613 31 213 0.0 0.0 0.00 0.00 0.00 84 1012.0
20260507072110 31 206 0.0 0.0 0.00 0.00 0.00 84 1011.9
20260507071607 31 205 0.0 0.0 0.00 0.00 0.00 83 1012.2
20260507071103 31 207 0.0 0.0 0.00 0.00 0.00 83 1012.2
20260507070601 31 208 0.0 0.0 0.00 0.00 0.00 83 1012.3
20260507070058 31 208 0.0 0.0 0.00 0.00 0.00 82 1012.3
20260507065554 32 210 0.0 0.0 0.00 0.00 0.00 82 1012.3
20260507065051 32 207 0.0 0.0 0.00 0.00 0.00 83 1012.4
20260507064549 32 208 0.0 0.0 0.00 0.00 0.00 82 1012.4
20260507064048 32 204 0.0 0.0 0.00 0.00 0.00 82 1012.4
20260507063544 32 213 0.0 0.0 0.00 0.00 0.00 82 1012.7
20260507063042 32 211 0.0 0.0 0.00 0.00 0.00 81 1012.4
20260507062538 32 208 0.0 0.0 0.00 0.00 0.00 83 1012.4
20260507062036 32 204 0.0 0.0 0.00 0.00 0.00 83 1012.6
20260507061533 33 206 0.0 0.0 0.00 0.00 0.00 83 1012.4
20260507061031 33 204 0.0 0.0 0.00 0.00 0.00 83 1012.8
20260507060529 33 206 0.0 0.0 0.00 0.00 0.00 83 1012.8
20260507060025 33 205 0.0 0.0 0.00 0.00 0.00 83 1012.8
20260507055520 33 208 0.0 0.0 0.00 0.00 0.00 81 1012.8
20260507055017 33 208 0.0 0.0 0.00 0.00 0.00 80 1012.9
20260507054513 33 206 0.0 0.0 0.00 0.00 0.00 80 1012.7
20260507054010 34 206 0.0 0.0 0.00 0.00 0.00 80 1012.9
20260507053508 34 205 0.0 0.0 0.00 0.00 0.00 80 1013.1
20260507053006 34 208 0.0 0.0 0.00 0.00 0.00 78 1012.8
20260507052504 35 208 0.0 0.0 0.00 0.00 0.00 78 1013.0
20260507052000 35 206 0.0 0.0 0.00 0.00 0.00 77 1013.0
20260507051458 35 209 0.0 0.0 0.00 0.00 0.00 77 1013.0
20260507050954 36 209 0.0 0.0 0.00 0.00 0.00 77 1012.8
20260507050450 36 209 0.0 0.0 0.00 0.00 0.00 75 1012.9
20260507045948 36 209 0.0 0.0 0.00 0.00 0.00 74 1013.0
20260507045444 37 208 0.0 0.0 0.00 0.00 0.00 74 1012.9
20260507044941 37 208 0.0 0.0 0.00 0.00 0.00 72 1013.0
20260507044438 38 215 0.0 0.0 0.00 0.00 0.00 69 1013.0
20260507043934 38 217 0.0 0.0 0.00 0.00 0.00 66 1013.4
20260507043430 37 217 0.0 0.0 0.00 0.00 0.00 65 1013.2
20260507042927 37 221 0.0 0.0 0.00 0.00 0.00 72 1013.1
20260507042424 37 214 0.0 0.0 0.00 0.00 0.00 73 1013.5
20260507041919 37 218 0.0 0.0 0.00 0.00 0.00 69 1013.1
20260507041416 37 208 0.0 0.0 0.00 0.00 0.00 69 1013.1
20260507040914 37 213 0.0 0.0 0.00 0.00 0.00 70 1013.2
20260507040409 38 211 0.0 0.0 0.00 0.00 0.00 68 1013.4
20260507035905 37 217 0.0 0.0 0.00 0.00 0.00 68 1013.4
20260507035402 38 220 0.0 0.0 0.00 0.00 0.00 65 1013.5
20260507034859 37 219 0.0 0.0 0.00 0.00 0.00 64 1013.4
20260507034355 37 216 0.0 0.0 0.00 0.00 0.00 68 1013.6
20260507033853 36 218 0.0 0.0 0.00 0.00 0.00 65 1013.5
20260507033351 36 216 0.0 0.0 0.00 0.00 0.00 72 1013.5
20260507032848 36 216 0.0 0.0 0.00 0.00 0.00 70 1013.4
20260507032345 36 209 0.0 0.0 0.00 0.00 0.00 67 1013.4
20260507031841 36 209 0.0 0.0 0.00 0.00 0.00 73 1013.4
20260507031338 36 213 0.0 0.0 0.00 0.00 0.00 69 1013.6
20260507030834 36 217 0.0 0.0 0.00 0.00 0.00 67 1013.6
20260507030332 37 205 0.0 0.0 0.00 0.00 0.00 69 1013.5
20260507025828 36 208 0.0 0.0 0.00 0.00 0.00 67 1013.6
20260507025326 36 211 0.0 0.0 0.00 0.00 0.00 70 1013.6
20260507024824 37 211 0.0 0.0 0.00 0.00 0.00 70 1013.5
20260507024321 37 214 0.0 0.0 0.00 0.00 0.00 68 1013.7
20260507023816 38 213 0.0 0.0 0.00 0.00 0.00 66 1013.7
20260507023313 39 206 0.0 0.0 0.00 0.00 0.00 63 1013.5
20260507022811 39 205 0.0 0.0 0.00 0.00 0.00 59 1013.5
20260507022307 40 211 0.0 0.0 0.00 0.00 0.00 56 1013.5
20260507021803 40 217 0.0 0.0 0.00 0.00 0.00 55 1013.6
20260507021259 41 218 0.0 0.0 0.00 0.00 0.00 55 1013.8
20260507020757 41 232 0.0 0.0 0.00 0.00 0.00 54 1013.5
20260507020253 41 218 0.0 0.0 0.00 0.00 0.00 53 1013.6
20260507015751 41 232 0.0 0.0 0.00 0.00 0.00 53 1013.6
20260507015248 41 242 0.0 0.0 0.00 0.00 0.00 53 1013.7
20260507014745 41 222 0.0 0.0 0.00 0.00 0.00 54 1013.4
20260507014241 41 199 0.0 0.0 0.00 0.00 0.00 53 1013.4
20260507013738 42 243 1.0 1.0 0.00 0.00 0.00 53 1013.5
20260507013235 41 233 1.0 1.0 0.00 0.00 0.00 52 1013.5
20260507012732 41 233 0.0 0.0 0.00 0.00 0.00 52 1013.6
20260507012228 42 230 0.0 1.0 0.00 0.00 0.00 52 1013.4
20260507011726 42 238 1.0 1.0 0.00 0.00 0.00 52 1013.5
20260507011222 42 208 1.0 2.0 0.00 0.00 0.00 51 1013.8
20260507010721 42 251 1.0 1.0 0.00 0.00 0.00 50 1013.7
20260507010218 42 269 1.0 1.0 0.00 0.00 0.00 50 1013.5
20260507005716 42 272 2.0 2.0 0.00 0.00 0.00 50 1013.8
20260507005212 43 316 5.0 6.0 0.00 0.00 0.00 49 1013.7
20260507004708 43 270 2.0 2.0 0.00 0.00 0.00 49 1013.8
20260507004206 44 281 3.0 3.0 0.00 0.00 0.00 50 1013.7
20260507003702 44 291 3.0 5.0 0.00 0.00 0.00 49 1013.6
20260507003157 44 286 4.0 5.0 0.00 0.00 0.00 50 1013.6
20260507002654 44 285 6.0 7.0 0.00 0.00 0.00 50 1013.7
20260507002150 44 261 5.0 6.0 0.00 0.00 0.00 50 1013.7
20260507001647 43 292 3.0 5.0 0.00 0.00 0.00 50 1013.8
20260507001144 43 254 4.0 5.0 0.00 0.00 0.00 50 1013.6
20260507000640 43 242 3.0 5.0 0.00 0.00 0.00 50 1013.8
20260507000136 44 274 3.0 3.0 0.00 0.00 0.00 50 1013.8
20260506235634 44 304 5.0 6.0 0.00 0.00 0.00 50 1013.8
20260506235133 44 300 4.0 5.0 0.00 0.00 0.00 50 1013.8
20260506234631 44 275 6.0 7.0 0.00 0.00 0.00 49 1013.8
20260506234128 44 285 6.0 7.0 0.00 0.00 0.00 49 1013.8
20260506233625 44 300 3.0 3.0 0.00 0.00 0.00 48 1014.0
20260506233122 44 297 3.0 3.0 0.00 0.00 0.00 49 1013.9
20260506232618 44 277 6.0 7.0 0.00 0.00 0.00 49 1013.9
20260506232114 44 291 3.0 3.0 0.00 0.00 0.00 49 1014.0
20260506231611 44 288 3.0 3.0 0.00 0.00 0.00 49 1013.9
20260506231109 44 314 4.0 5.0 0.00 0.00 0.00 48 1014.1
20260506230606 44 308 4.0 5.0 0.00 0.00 0.00 48 1014.0
20260506230103 44 260 1.0 2.0 0.00 0.00 0.00 49 1014.0
20260506225559 44 257 4.0 6.0 0.00 0.00 0.00 48 1014.1
20260506225055 44 279 3.0 5.0 0.00 0.00 0.00 49 1014.1
20260506224553 44 6 4.0 5.0 0.00 0.00 0.00 50 1014.1
20260506224049 44 311 2.0 2.0 0.00 0.00 0.00 48 1013.9
20260506223545 44 308 2.0 2.0 0.00 0.00 0.00 49 1014.2
20260506223042 44 301 4.0 7.0 0.00 0.00 0.00 49 1014.0
20260506222539 44 273 3.0 3.0 0.00 0.00 0.00 49 1014.0
20260506222035 44 276 5.0 6.0 0.00 0.00 0.00 49 1014.1
20260506221533 44 280 2.0 2.0 0.00 0.00 0.00 50 1014.1
20260506221030 44 312 3.0 5.0 0.00 0.00 0.00 49 1014.2
20260506220526 44 287 4.0 7.0 0.00 0.00 0.00 48 1014.0
20260506220022 44 245 3.0 3.0 0.00 0.00 0.00 48 1014.2
20260506215519 44 257 3.0 3.0 0.00 0.00 0.00 49 1014.1
20260506215015 44 259 4.0 5.0 0.00 0.00 0.00 49 1014.2
20260506214512 44 311 5.0 7.0 0.00 0.00 0.00 50 1014.2
20260506214009 44 332 5.0 6.0 0.00 0.00 0.00 49 1014.3
20260506213507 44 297 4.0 5.0 0.00 0.00 0.00 49 1014.4
20260506213004 44 291 5.0 6.0 0.00 0.00 0.00 49 1014.3
20260506212500 43 264 4.0 5.0 0.00 0.00 0.00 50 1014.4
20260506211955 44 314 5.0 6.0 0.00 0.00 0.00 50 1014.4
20260506211451 44 291 4.0 5.0 0.00 0.00 0.00 50 1014.4
20260506210949 43 273 6.0 7.0 0.00 0.00 0.00 49 1014.5
20260506210445 44 277 4.0 5.0 0.00 0.00 0.00 49 1014.6
20260506205942 44 297 5.0 6.0 0.00 0.00 0.00 50 1014.5
20260506205438 44 249 3.0 5.0 0.00 0.00 0.00 50 1014.6
20260506204934 43 290 7.0 10.0 0.00 0.00 0.00 51 1014.5
20260506204432 43 260 3.0 3.0 0.00 0.00 0.00 51 1014.7
20260506203929 43 245 3.0 3.0 0.00 0.00 0.00 51 1014.8
20260506203427 43 260 3.0 5.0 0.00 0.00 0.00 50 1014.7
20260506202923 43 281 4.0 5.0 0.00 0.00 0.00 51 1014.9
20260506202421 43 248 4.0 6.0 0.00 0.00 0.00 51 1014.7
20260506201917 43 274 2.0 5.0 0.00 0.00 0.00 53 1014.7
20260506201415 43 293 4.0 5.0 0.00 0.00 0.00 51 1014.9
20260506200911 43 314 4.0 5.0 0.00 0.00 0.00 50 1014.7
20260506200407 43 328 5.0 6.0 0.00 0.00 0.00 51 1014.9
20260506195904 42 301 4.0 5.0 0.00 0.00 0.00 51 1014.7
20260506195401 42 273 5.0 6.0 0.00 0.00 0.00 52 1014.8
20260506194858 42 267 4.0 5.0 0.00 0.00 0.00 52 1015.0
20260506194354 42 312 6.0 7.0 0.00 0.00 0.00 51 1014.8
20260506193852 42 351 3.0 3.0 0.00 0.00 0.00 50 1014.9
20260506193349 42 306 5.0 6.0 0.00 0.00 0.00 51 1014.8
20260506192845 42 12 5.0 7.0 0.00 0.00 0.00 51 1014.8
20260506192342 42 335 5.0 7.0 0.00 0.00 0.00 51 1014.8
20260506191839 42 310 6.0 7.0 0.00 0.00 0.00 53 1014.9
20260506191335 42 300 5.0 6.0 0.00 0.00 0.00 53 1014.9
20260506190832 41 261 2.0 3.0 0.00 0.00 0.00 52 1015.0
20260506190328 41 262 3.0 5.0 0.00 0.00 0.00 53 1015.1
20260506185825 41 291 2.0 3.0 0.00 0.00 0.00 53 1015.1
20260506185322 41 316 5.0 6.0 0.00 0.00 0.00 53 1015.0
20260506184819 41 300 8.0 9.0 0.00 0.00 0.00 52 1015.0
20260506184317 41 292 6.0 8.0 0.00 0.00 0.00 52 1015.1
20260506183814 41 236 3.0 5.0 0.00 0.00 0.00 54 1015.1
20260506183309 41 3 3.0 3.0 0.00 0.00 0.00 54 1015.1
20260506182806 41 337 4.0 6.0 0.00 0.00 0.00 53 1015.0
20260506182306 41 358 3.0 3.0 0.00 0.00 0.00 53 1015.3
20260506181801 41 311 3.0 5.0 0.00 0.00 0.00 53 1015.2
20260506181259 41 279 3.0 3.0 0.00 0.00 0.00 54 1015.3
20260506180756 41 283 5.0 7.0 0.00 0.00 0.00 53 1015.3
20260506180251 41 6 5.0 6.0 0.00 0.00 0.00 53 1015.2
20260506175748 41 1 5.0 6.0 0.00 0.00 0.00 53 1015.2
20260506175245 41 309 6.0 7.0 0.00 0.00 0.00 54 1015.2
20260506174742 41 307 4.0 5.0 0.00 0.00 0.00 54 1015.3
20260506174239 41 332 5.0 6.0 0.00 0.00 0.00 54 1015.4
20260506173737 40 305 3.0 5.0 0.00 0.00 0.00 55 1015.3
20260506173234 40 335 5.0 6.0 0.00 0.00 0.00 54 1015.3
20260506172731 40 294 7.0 7.0 0.00 0.00 0.00 55 1015.5
20260506172227 40 312 3.0 3.0 0.00 0.00 0.00 55 1015.4
20260506171725 40 13 7.0 9.0 0.00 0.00 0.00 56 1015.6
20260506171222 40 311 5.0 7.0 0.00 0.00 0.00 55 1015.3
20260506170719 40 317 7.0 7.0 0.00 0.00 0.00 55 1015.6
20260506170216 40 290 3.0 6.0 0.00 0.00 0.00 56 1015.5
20260506165714 40 293 3.0 5.0 0.00 0.00 0.00 56 1015.7
20260506165211 40 1 3.0 3.0 0.00 0.00 0.00 56 1015.7
20260506164708 40 19 7.0 8.0 0.00 0.00 0.00 55 1015.7
20260506164205 39 26 4.0 6.0 0.00 0.00 0.00 56 1015.6
20260506163701 40 4 4.0 6.0 0.00 0.00 0.00 56 1015.6
20260506163157 40 348 5.0 5.0 0.00 0.00 0.00 56 1015.5
20260506162653 40 337 5.0 7.0 0.00 0.00 0.00 56 1015.5
20260506162151 40 288 8.0 9.0 0.00 0.00 0.00 56 1015.7
20260506161648 39 345 3.0 3.0 0.00 0.00 0.00 57 1015.5
20260506161144 39 307 5.0 6.0 0.00 0.00 0.00 57 1015.6
20260506160642 40 231 3.0 3.0 0.00 0.00 0.00 58 1015.5
20260506160139 39 303 3.0 3.0 0.00 0.00 0.00 58 1015.7
20260506155638 39 339 3.0 3.0 0.00 0.00 0.00 58 1015.6
20260506155134 39 313 4.0 5.0 0.00 0.00 0.00 57 1015.6
20260506153236 38 32 4.0 5.0 0.00 0.00 0.00 58 1015.7
20260506152733 38 351 6.0 8.0 0.00 0.00 0.00 58 1015.5
20260506152230 38 316 5.0 7.0 0.00 0.00 0.00 58 1015.6
20260506151730 39 320 5.0 6.0 0.00 0.00 0.00 57 1015.7
20260506151225 39 320 5.0 7.0 0.00 0.00 0.00 58 1015.5
20260506150722 38 331 3.0 3.0 0.00 0.00 0.00 58 1015.6
20260506150219 38 309 4.0 6.0 0.00 0.00 0.00 57 1015.4
20260506145716 38 38 6.0 8.0 0.00 0.00 0.00 58 1015.6
20260506145213 38 296 3.0 3.0 0.00 0.00 0.00 57 1015.6
20260506144710 38 348 5.0 8.0 0.00 0.00 0.00 58 1015.5
20260506144207 38 302 7.0 7.0 0.00 0.00 0.00 57 1015.5
20260506143705 37 315 6.0 8.0 0.00 0.00 0.00 57 1015.5
20260506143202 37 329 7.0 7.0 0.00 0.00 0.00 57 1015.5
20260506142701 38 1 6.0 8.0 0.00 0.00 0.00 57 1015.5
20260506142158 38 292 5.0 6.0 0.00 0.00 0.00 58 1015.4
20260506141656 38 331 5.0 6.0 0.00 0.00 0.00 57 1015.6
20260506141154 38 307 7.0 9.0 0.00 0.00 0.00 57 1015.4
20260506140651 38 349 8.0 11.0 0.00 0.00 0.00 58 1015.4
20260506140148 38 18 5.0 8.0 0.00 0.00 0.00 58 1015.5
20260506135645 38 312 6.0 7.0 0.00 0.00 0.00 58 1015.3
20260506135141 38 305 4.0 5.0 0.00 0.00 0.00 58 1015.3
20260506134638 38 308 4.0 5.0 0.00 0.00 0.00 59 1015.3
20260506134133 38 313 5.0 8.0 0.00 0.00 0.00 59 1015.2
20260506133631 37 313 5.0 7.0 0.00 0.00 0.00 59 1015.1
20260506133128 37 298 7.0 8.0 0.00 0.00 0.00 60 1015.2
20260506132625 37 307 6.0 7.0 0.00 0.00 0.00 60 1015.2
20260506132122 37 275 3.0 3.0 0.00 0.00 0.00 61 1015.0
20260506131620 37 308 3.0 3.0 0.00 0.00 0.00 63 1015.0
20260506131116 37 28 4.0 5.0 0.00 0.00 0.00 62 1015.0
20260506130613 37 340 4.0 5.0 0.00 0.00 0.00 62 1015.0
20260506130110 37 286 4.0 5.0 0.00 0.00 0.00 62 1015.0
20260506125608 37 332 4.0 5.0 0.00 0.00 0.00 63 1014.8
20260506125106 36 320 3.0 3.0 0.00 0.00 0.00 64 1014.7
20260506124603 36 289 4.0 5.0 0.00 0.00 0.00 64 1014.7
20260506124101 35 306 4.0 5.0 0.00 0.00 0.00 66 1014.6
20260506123558 35 333 2.0 3.0 0.00 0.00 0.00 67 1014.7
20260506123057 35 304 3.0 5.0 0.00 0.00 0.00 67 1014.5
20260506122553 35 316 3.0 3.0 0.00 0.00 0.00 68 1014.4
20260506122051 34 293 2.0 2.0 0.00 0.00 0.00 70 1014.5
20260506121548 34 283 2.0 2.0 0.00 0.00 0.00 70 1014.3
20260506121044 34 339 2.0 2.0 0.00 0.00 0.00 71 1014.3
20260506120543 33 282 2.0 3.0 0.00 0.00 0.00 71 1014.3
20260506120040 33 312 3.0 3.0 0.00 0.00 0.00 72 1014.2
20260506115538 33 277 1.0 2.0 0.00 0.00 0.00 72 1014.2
20260506115036 33 262 2.0 2.0 0.00 0.00 0.00 73 1014.0
20260506114533 33 308 2.0 2.0 0.00 0.00 0.00 73 1014.0
20260506114031 33 286 2.0 2.0 0.00 0.00 0.00 73 1013.9
20260506113529 32 260 1.0 1.0 0.00 0.00 0.00 73 1014.0
20260506113026 32 260 1.0 1.0 0.00 0.00 0.00 73 1013.9
20260506112522 32 217 1.0 1.0 0.00 0.00 0.00 74 1013.9
20260506112020 32 224 0.0 0.0 0.00 0.00 0.00 74 1014.0
20260506111518 32 259 1.0 1.0 0.00 0.00 0.00 74 1014.0
20260506111015 32 248 1.0 1.0 0.00 0.00 0.00 74 1014.1
20260506110512 32 258 2.0 2.0 0.00 0.00 0.00 75 1014.1
20260506110009 32 236 1.0 2.0 0.00 0.00 0.00 75 1014.1
20260506105505 32 258 1.0 2.0 0.00 0.00 0.00 75 1014.0
20260506105003 32 228 1.0 1.0 0.00 0.00 0.00 75 1014.2
20260506104501 32 260 2.0 2.0 0.00 0.00 0.00 75 1014.2
20260506103958 31 260 2.0 2.0 0.00 0.00 0.00 75 1014.0
20260506103455 31 234 1.0 2.0 0.00 0.00 0.00 75 1013.7
20260506102952 31 248 1.0 1.0 0.00 0.00 0.00 75 1013.8
20260506102450 31 260 1.0 1.0 0.00 0.00 0.00 75 1013.7
20260506101947 31 259 1.0 2.0 0.00 0.00 0.00 75 1013.5
20260506101444 31 239 1.0 1.0 0.00 0.00 0.00 76 1013.6
20260506100941 31 240 1.0 1.0 0.00 0.00 0.00 76 1013.5
20260506100439 31 240 1.0 1.0 0.00 0.00 0.00 76 1013.4
20260506095937 31 224 0.0 0.0 0.00 0.00 0.00 76 1013.4
20260506095436 31 228 0.0 0.0 0.00 0.00 0.00 76 1013.6
20260506094931 31 228 0.0 0.0 0.00 0.00 0.00 76 1013.5
20260506094430 31 222 0.0 0.0 0.00 0.00 0.00 76 1013.7
20260506093927 32 213 0.0 0.0 0.00 0.00 0.00 75 1013.7
20260506093425 32 218 0.0 0.0 0.00 0.00 0.00 73 1013.4
20260506092923 32 216 0.0 0.0 0.00 0.00 0.00 72 1013.5